sat.trackr.live / text

‹ back to catalog

2024-205E

NORAD 61898 · 2024-205E

PAYLOAD ACTIVE UNKNOWN

§ Identity

Operator
Country
PRC
Launch date
2024-11-11
Launch site
JSC
Launch vehicle
Mass (kg)
RCS (m²)

External: N2YO · Heavens-Above · Gunter

§ Orbital elements

Epoch: 2026-05-25T04:09:56.717568Z

Period
95.32 min
Inclination
97.4120°
Eccentricity
0.0058162
Mean motion
15.10647396 rev/d
Perigee alt
494.0 km
Apogee alt
574.4 km
Semi-major
6,912.4 km
B*
4.9273e-4
RAAN
216.5337°
Arg perigee
82.0904°
Mean anomaly
278.6922°
Rev number
8,474

§ Raw data

2024-205E1 61898U 24205E   26145.17357312  .00008424  00000+0  49273-3 0  99972 61898  97.4120 216.5337 0058162  82.0904 278.6922 15.10647396 84740

JSON: /api/v1/satellites/61898 · /tle

For live sub-satellite position, see the globe view (requires WebGL).

§ Visibility from observer

Set your observer location to see the next 7 days of passes ≥ 10°. The values pass through the URL so the page stays shareable.

No JS? Fill the form by hand. The geolocation button needs JavaScript.